CW4171 Ibiza ES current weather conditions

sailwx.info

Wind from 261

Air temperature 24.4° C
Dewpoint 22.7° C

Last reported at 2020-Sep-19 07:59 UTC.
Time now 2020-Sep-19 09:11 UTC

Location: N 38°59' E 001°18'.
View on Google Maps.

See reports from other nearby stations

  
Tides and Currents Weather Stations Pressure Air Temp Water Temp Dewpoint Dewpoint Depression Visibility Wind Speed Wind Dir Waves Ship Positions
date/time (UTC)wind fromknots sea level pressurealtimeterstation pressurevisibilityair tempwater tempwave heightnotes
2020-Sep-19 07:59 261 24.4
2020-Sep-19 07:49 276 23.9
2020-Sep-19 07:39 195 23.3
2020-Sep-19 07:29 120 22.8
2020-Sep-19 07:19 119 22.8
2020-Sep-19 07:09 119 22.2
2020-Sep-19 06:59 119 22.2
2020-Sep-19 06:49 119 21.7
2020-Sep-19 06:39 119 21.1
2020-Sep-19 06:29 119 20.6
2020-Sep-19 06:19 119 20.0
2020-Sep-19 06:09 118 20.0
2020-Sep-19 05:59 118 20.0
2020-Sep-19 05:49 119 21.1
2020-Sep-19 05:39 118 21.1
2020-Sep-19 05:29 118 21.1
2020-Sep-19 05:19 119 21.1
2020-Sep-19 05:09 119 21.1
2020-Sep-19 04:59 119 21.1
2020-Sep-19 04:49 118 21.1
2020-Sep-19 04:39 119 21.1
2020-Sep-19 04:29 119 21.7
2020-Sep-19 04:19 118 21.7
2020-Sep-19 04:09 119 21.7
2020-Sep-19 03:59 119 21.7
2020-Sep-19 03:49 118 21.7
2020-Sep-19 03:39 118 21.7
2020-Sep-19 03:29 119 22.2
2020-Sep-19 03:19 119 22.2
2020-Sep-19 03:09 119 22.2
2020-Sep-19 02:59 119 21.7
2020-Sep-19 02:49 119 21.1
2020-Sep-19 02:39 118 21.1
2020-Sep-19 02:29 118 21.1
2020-Sep-19 02:19 119 21.1
2020-Sep-19 02:09 119 21.1
2020-Sep-19 01:59 119 21.7
2020-Sep-19 01:49 119 21.7
2020-Sep-19 01:39 119 22.2
2020-Sep-19 01:29 118 22.2
2020-Sep-19 01:19 119 22.2
2020-Sep-19 01:09 119 21.7
2020-Sep-19 00:59 119 22.2
2020-Sep-19 00:49 119 22.2
2020-Sep-19 00:39 119 22.2
2020-Sep-19 00:29 119 22.2
2020-Sep-19 00:19 119 22.2
2020-Sep-19 00:09 119 22.2
2020-Sep-18 23:59 119 22.2
2020-Sep-18 23:49 119 22.2
2020-Sep-18 23:39 119 22.2
2020-Sep-18 23:29 119 22.8
2020-Sep-18 23:19 119 22.8
2020-Sep-18 23:09 119 22.2
2020-Sep-18 22:59 119 22.2
2020-Sep-18 22:49 119 22.2
2020-Sep-18 22:39 119 22.8
2020-Sep-18 22:29 119 22.8
2020-Sep-18 22:19 119 23.3
2020-Sep-18 22:09 119 23.9
2020-Sep-18 21:59 119 23.9
2020-Sep-18 21:49 119 24.4
2020-Sep-18 21:39 119 24.4
2020-Sep-18 21:29 119 24.4
2020-Sep-18 21:19 119 24.4
2020-Sep-18 21:09 119 24.4
2020-Sep-18 20:59 119 24.4
2020-Sep-18 20:49 119 24.4
2020-Sep-18 20:39 119 24.4
2020-Sep-18 20:29 119 24.4
2020-Sep-18 20:19 119 24.4
2020-Sep-18 20:09 119 23.9
2020-Sep-18 19:59 119 23.9
2020-Sep-18 19:49 119 23.9
2020-Sep-18 19:39 119 23.9
2020-Sep-18 19:29 119 23.9
2020-Sep-18 19:19 119 23.9
2020-Sep-18 19:09 121 23.9
2020-Sep-18 18:59 119 23.9
2020-Sep-18 18:49 119 23.9
2020-Sep-18 18:39 120 23.9
2020-Sep-18 18:29 120 23.9
2020-Sep-18 18:19 121 23.9
2020-Sep-18 18:09 122 24.4
2020-Sep-18 17:59 121 24.4
2020-Sep-18 17:49 122 24.4
2020-Sep-18 17:39 124 25.0
2020-Sep-18 17:29 124 25.0
2020-Sep-18 17:19 123 25.0
2020-Sep-18 17:09 125 25.0
2020-Sep-18 16:59 126 24.4
2020-Sep-18 16:49 144 23.9
2020-Sep-18 16:39 144 23.9
2020-Sep-18 16:29 144 23.3
2020-Sep-18 16:19 145 23.3
2020-Sep-18 16:09 144 22.8
2020-Sep-18 15:59 160 23.3
2020-Sep-18 15:49 160 23.9
2020-Sep-18 15:39 160 23.9
2020-Sep-18 15:19 205 25.6
2020-Sep-18 15:09 221 0 26.1
2020-Sep-18 14:59 227 3 26.7
2020-Sep-18 14:49 268 7 26.7
2020-Sep-18 14:39 230 0 27.2
2020-Sep-18 14:29 215 27.2
2020-Sep-18 14:19 224 2 26.7
2020-Sep-18 14:09 227 26.1
2020-Sep-18 13:59 355 25.6
2020-Sep-18 13:49 355 25.0
2020-Sep-18 13:39 355 25.0
2020-Sep-18 13:29 355 25.0
2020-Sep-18 13:19 355 25.0
2020-Sep-18 13:09 355 25.6
2020-Sep-18 12:59 355 25.6
2020-Sep-18 12:49 355 26.1
2020-Sep-18 12:39 355 25.6
2020-Sep-18 12:29 355 25.6
2020-Sep-18 12:19 355 25.6
2020-Sep-18 12:09 355 25.0
2020-Sep-18 11:59 355 25.0
2020-Sep-18 11:49 339 24.4
2020-Sep-18 11:39 339 24.4
2020-Sep-18 11:29 341 24.4
2020-Sep-18 11:19 320 24.4
2020-Sep-18 11:09 323 24.4
2020-Sep-18 10:59 322 24.4
2020-Sep-18 10:49 298 0 25.0
2020-Sep-18 10:39 241 26.1
2020-Sep-18 10:29 024 26.1
2020-Sep-18 10:19 024 25.6
2020-Sep-18 10:09 345 25.6
2020-Sep-18 09:59 345 25.0
2020-Sep-18 09:49 345 23.9
2020-Sep-18 09:39 318 0 23.9
2020-Sep-18 09:29 287 1 23.9
2020-Sep-18 09:19 268 2 24.4
2020-Sep-18 09:09 275 2 25.0
2020-Sep-18 08:59 319 1 25.0
2020-Sep-18 08:49 293 1 24.4
2020-Sep-18 08:39 311 1 24.4
2020-Sep-18 08:29 049 25.0
2020-Sep-18 08:19 050 25.0
2020-Sep-18 08:09 049 24.4
2020-Sep-18 07:59 049 24.4
2020-Sep-18 07:49 049 24.4
2020-Sep-18 07:39 049 23.9
2020-Sep-18 07:29 049 23.9
2020-Sep-18 07:19 049 23.9
2020-Sep-18 07:09 049 23.9
2020-Sep-18 06:59 049 23.3
2020-Sep-18 06:49 049 23.3
2020-Sep-18 06:39 049 23.3
2020-Sep-18 06:29 049 23.3
2020-Sep-18 06:19 049 23.3
2020-Sep-18 06:09 049 23.9
2020-Sep-18 05:59 049 23.9
2020-Sep-18 05:49 049 23.9
2020-Sep-18 05:39 049 23.3
2020-Sep-18 05:29 049 23.3
2020-Sep-18 05:19 049 23.3
2020-Sep-18 05:09 049 23.3
2020-Sep-18 04:59 049 23.3
2020-Sep-18 04:49 049 23.9
2020-Sep-18 04:39 049 23.9
2020-Sep-18 04:29 049 24.4
2020-Sep-18 04:19 049 24.4
2020-Sep-18 04:09 049 24.4
2020-Sep-18 03:59 049 24.4
2020-Sep-18 03:49 049 24.4
2020-Sep-18 03:39 049 24.4
2020-Sep-18 03:29 049 24.4
2020-Sep-18 03:19 049 24.4
2020-Sep-18 03:09 049 24.4
2020-Sep-18 02:59 049 24.4
2020-Sep-18 02:49 049 24.4
2020-Sep-18 02:39 049 24.4
2020-Sep-18 02:29 049 24.4
2020-Sep-18 02:19 048 24.4
2020-Sep-18 02:09 048 24.4
2020-Sep-18 01:59 048 24.4
2020-Sep-18 01:49 053 24.4
2020-Sep-18 01:39 098 24.4
2020-Sep-18 01:29 098 24.4
2020-Sep-18 01:19 111 24.4
2020-Sep-18 01:09 111 24.4
2020-Sep-18 00:59 116 24.4
2020-Sep-18 00:49 112 24.4
2020-Sep-18 00:39 092 24.4
2020-Sep-18 00:29 098 24.4
2020-Sep-18 00:19 101 24.4
2020-Sep-18 00:09 111 24.4
2020-Sep-17 23:59 116 24.4
2020-Sep-17 23:49 111 24.4
2020-Sep-17 23:39 127 24.4
2020-Sep-17 23:29 128 24.4
2020-Sep-17 23:19 128 24.4
2020-Sep-17 23:09 128 24.4
2020-Sep-17 22:59 128 25.0
2020-Sep-17 22:49 128 25.0
2020-Sep-17 22:39 129 25.0
2020-Sep-17 22:29 133 25.0
2020-Sep-17 22:19 128 25.0
2020-Sep-17 22:09 128 25.0
2020-Sep-17 21:59 129 25.0
2020-Sep-17 21:49 130 25.0
2020-Sep-17 21:39 130 25.0
2020-Sep-17 21:29 132 25.0
2020-Sep-17 21:19 132 25.0
2020-Sep-17 21:09 123 25.0
2020-Sep-17 20:59 119 25.0
2020-Sep-17 20:49 125 25.0
2020-Sep-17 20:39 094 25.0
2020-Sep-17 20:29 117 25.0
2020-Sep-17 20:19 096 25.0
2020-Sep-17 20:09 131 25.0
2020-Sep-17 19:59 113 25.0
2020-Sep-17 19:49 130 25.0
2020-Sep-17 19:39 126 25.0
2020-Sep-17 19:29 140 25.6
2020-Sep-17 19:19 127 25.6
2020-Sep-17 19:09 129 25.6
2020-Sep-17 18:59 128 25.6
2020-Sep-17 18:49 123 25.6
2020-Sep-17 18:39 121 25.6
2020-Sep-17 18:29 114 25.6
2020-Sep-17 18:19 111 26.1
2020-Sep-17 18:09 132 26.1
2020-Sep-17 17:59 163 26.1
2020-Sep-17 17:49 111 26.7
2020-Sep-17 17:39 116 26.7
2020-Sep-17 17:29 113 26.7
2020-Sep-17 17:19 130 27.2
2020-Sep-17 17:09 135 27.8
2020-Sep-17 16:59 134 27.8
2020-Sep-17 16:49 134 27.8
2020-Sep-17 16:39 138 27.8
2020-Sep-17 16:29 133 27.2
2020-Sep-17 16:19 104 27.2
2020-Sep-17 16:09 119 27.8
2020-Sep-17 15:59 134 27.8
2020-Sep-17 15:49 137 27.8
2020-Sep-17 15:39 136 28.3
2020-Sep-17 15:29 123 28.9
2020-Sep-17 15:19 165 28.9
2020-Sep-17 15:09 153 28.9
2020-Sep-17 14:59 178 29.4
2020-Sep-17 14:49 134 29.4
2020-Sep-17 14:39 144 30.0
2020-Sep-17 14:29 166 29.4
2020-Sep-17 14:19 159 29.4
2020-Sep-17 14:09 143 28.9
2020-Sep-17 13:59 148 28.9
2020-Sep-17 13:49 174 28.9
2020-Sep-17 13:39 171 29.4
2020-Sep-17 13:29 196 29.4
2020-Sep-17 13:19 158 29.4
2020-Sep-17 13:09 176 29.4
2020-Sep-17 12:59 175 29.4
2020-Sep-17 12:49 175 29.4
2020-Sep-17 12:39 174 29.4
2020-Sep-17 12:29 174 29.4
2020-Sep-17 12:19 173 29.4
2020-Sep-17 12:09 169 0 30.0
2020-Sep-17 11:59 194 30.0
2020-Sep-17 11:49 034 30.0
2020-Sep-17 11:39 034 29.4
2020-Sep-17 11:29 034 29.4
2020-Sep-17 11:19 026 28.9
2020-Sep-17 11:09 024 28.9
2020-Sep-17 10:59 018 28.3
2020-Sep-17 10:49 018 28.3
2020-Sep-17 10:39 018 27.8
2020-Sep-17 10:29 018 27.2
2020-Sep-17 10:19 018 27.2
2020-Sep-17 10:09 018 26.7
2020-Sep-17 09:59 018 26.7
2020-Sep-17 09:49 018 26.7
2020-Sep-17 09:39 018 26.1
2020-Sep-17 09:29 018 25.6
2020-Sep-17 09:19 018 25.6
2020-Sep-17 09:09 018 25.6